Location: Santa Clara
(37.3540°N, 121.9540°W)
Time: 06:13:51
(UTC-07:00)

Hubble Space Telescope - Visible Passes

Search period start: 23 May 2024 00:00
Search period end: 02 June 2024 00:00
Orbit: 511 x 515 km, 28.5° (Epoch: 22 May)

Date Brightness Start Highest point End Pass type
(mag) Time Alt. Az. Time Alt. Az. Time Alt. Az.
25 May 2.8 20:58:46 10° S 20:59:26 10° SSE 21:00:07 10° SSE visible
26 May 2.9 22:17:32 10° SW 22:18:25 14° SW 22:18:25 14° SW visible
27 May 2.2 21:58:39 10° SW 22:01:02 21° S 22:01:02 21° S visible
28 May 2.0 21:39:46 10° SW 21:42:54 22° S 21:43:30 21° SSE visible
29 May 2.1 21:20:53 10° SW 21:24:02 22° S 21:25:50 17° SE visible
30 May 2.1 21:02:00 10° SW 21:05:09 22° S 21:08:03 11° SE visible
30 May 3.2 22:42:36 10° SW 22:42:51 11° SW 22:42:51 11° SW visible
31 May 2.9 22:23:51 10° SW 22:25:01 14° SW 22:25:01 14° SW visible
01 Jun 2.7 22:05:09 10° SW 22:07:06 14° SSW 22:07:06 14° SSW visible
